Daviess Cnty AP, Washington,, IN

2:24 AM EDT on July 23, 2017 (GMT -0400)
Daviess County

Weather History for KDCY - January, 2014

Change the Weather History Date:

Saturday, January 25, 2014

  Actual Average (KLWV) Record (KLWV)
Temperature  
Mean Temperature 28 °F -  
Max Temperature 40 °F 36 °F 59 °F (2017)
Min Temperature 16 °F 21 °F 0 °F (2008)
Degree Days  
Heating Degree Days 36    
Moisture  
Dew Point 14 °F    
Average Humidity 59    
Maximum Humidity 82    
Minimum Humidity 28    
Precipitation  
Precipitation 0.00 in - - ()
Sea Level Pressure  
Sea Level Pressure 29.78 in    
Wind  
Wind Speed 18 mph (West)    
Max Wind Speed 31 mph    
Max Gust Speed 44 mph    
Visibility 9 miles    
Events Snow    
Averages and records for this station are not official NWS values.
T = Trace of Precipitation, MM = Missing Value Source: NWS Daily Summary

Daily Weather History Graph

Daily Weather History Graph

Search for Another Location

Airport or City:

Trip Planner

Search our weather history database for the weather conditions in past years. The results will help you decide how hot, cold, wet, or windy it might be!

Date:

Astronomy

Jan. 25, 2014 Rise Set
Actual Time 7:59 AM EST 6:02 PM EST
Civil Twilight 7:31 AM EST 6:30 PM EST
Nautical Twilight 6:59 AM EST 7:03 PM EST
Astronomical Twilight 6:27 AM EST 7:34 PM EST
Moon 2:31 AM EST (1/25) 1:02 PM EST (1/25)
Length of Visible Light 10h 59m
Length of Day
10h 02m
Waning Crescent, 34% of the Moon is Illuminated
Jan 25
Waning Crescent
Jan 30
New
Feb 6
First Quarter
Feb 14
Full
Feb 22
Last Quarter

Hourly Weather History & Observations

Time (EST) Temp. Windchill Dew Point Humidity Pressure Visibility Wind Dir Wind Speed Gust Speed Precip Events Conditions
12:15 AM 25.5 °F 12.0 °F 6.1 °F 44% 29.87 in 10.0 mi SW 18.4 mph 27.6 mph N/A   Overcast
12:35 AM 25.7 °F 11.9 °F 7.0 °F 45% 29.87 in 10.0 mi SW 19.6 mph 27.6 mph N/A   Overcast
12:55 AM 24.6 °F 9.7 °F 13.8 °F 64% 29.85 in 5.0 mi SW 21.9 mph 31.1 mph N/A Snow Light Snow
1:15 AM 23.5 °F 9.9 °F 17.8 °F 79% 29.83 in 4.0 mi SW 17.3 mph 26.5 mph N/A Snow Light Snow
1:35 AM 23.5 °F 9.9 °F 18.5 °F 81% 29.81 in 3.0 mi SSW 17.3 mph 24.2 mph N/A Snow Light Snow
1:55 AM 23.7 °F 10.5 °F 18.9 °F 82% 29.79 in 5.0 mi SSW 16.1 mph 23.0 mph N/A Snow Light Snow
2:15 AM 23.9 °F 8.8 °F 19.2 °F 82% 29.76 in 5.0 mi SSW 21.9 mph 28.8 mph N/A   Haze
2:35 AM 24.6 °F 10.5 °F 19.2 °F 80% 29.75 in 10.0 mi SSW 19.6 mph 27.6 mph N/A   Overcast
2:55 AM 24.8 °F 10.7 °F 18.9 °F 78% 29.73 in 10.0 mi SSW 19.6 mph 25.3 mph N/A   Overcast
3:15 AM 24.4 °F 11.0 °F 19.0 °F 80% 29.73 in 10.0 mi SSW 17.3 mph 23.0 mph N/A   Overcast
3:35 AM 24.8 °F 10.3 °F 18.0 °F 75% 29.72 in 7.0 mi SSW 20.7 mph 28.8 mph N/A Snow Light Snow
3:55 AM 25.0 °F 10.9 °F 18.0 °F 75% 29.70 in 4.0 mi SSW 19.6 mph 26.5 mph N/A Snow Light Snow
4:15 AM 25.2 °F 12.4 °F 18.3 °F 75% 29.68 in 7.0 mi SSW 16.1 mph 25.3 mph N/A Snow Light Snow
4:35 AM 25.7 °F 12.3 °F 17.6 °F 71% 29.69 in 7.0 mi SSW 18.4 mph 24.2 mph N/A Snow Light Snow
4:55 AM 25.7 °F 12.7 °F 18.3 °F 74% 29.68 in 4.0 mi SW 17.3 mph 25.3 mph N/A Snow Light Snow
5:15 AM 25.7 °F 13.1 °F 19.4 °F 77% 29.68 in 3.0 mi SSW 16.1 mph 21.9 mph N/A Snow Light Snow
5:35 AM 25.7 °F 15.1 °F 19.4 °F 77% 29.67 in 7.0 mi SSW 11.5 mph 19.6 mph N/A   Overcast
5:55 AM 25.9 °F 15.3 °F 19.4 °F 76% 29.67 in 7.0 mi SSW 11.5 mph 16.1 mph N/A   Overcast
6:15 AM 26.6 °F 16.2 °F 19.2 °F 74% 29.66 in 10.0 mi SSW 11.5 mph - N/A   Overcast
6:35 AM 27.1 °F 16.4 °F 19.4 °F 73% 29.66 in 10.0 mi SW 12.7 mph 18.4 mph N/A   Overcast
6:55 AM 28.0 °F 18.1 °F 19.4 °F 70% 29.66 in 10.0 mi SSW 11.5 mph 17.3 mph N/A   Overcast
7:15 AM 28.4 °F 15.8 °F 19.8 °F 70% 29.66 in 4.0 mi SW 18.4 mph 27.6 mph N/A Snow Light Snow
7:35 AM 28.4 °F 17.0 °F 21.0 °F 74% 29.65 in 10.0 mi SW 15.0 mph - N/A   Overcast
7:55 AM 28.9 °F 16.9 °F 21.2 °F 73% 29.66 in 10.0 mi SW 17.3 mph 21.9 mph N/A   Overcast
8:15 AM 29.8 °F 18.4 °F 20.3 °F 68% 29.66 in 10.0 mi SW 16.1 mph - N/A   Overcast
8:35 AM 30.2 °F 19.3 °F 19.9 °F 66% 29.66 in 10.0 mi WSW 15.0 mph 20.7 mph N/A   Overcast
8:55 AM 31.6 °F 20.0 °F 19.6 °F 61% 29.67 in 10.0 mi WSW 18.4 mph 24.2 mph N/A   Overcast
9:15 AM 31.8 °F 20.2 °F 20.1 °F 62% 29.67 in 10.0 mi WSW 18.4 mph 23.0 mph N/A   Overcast
9:35 AM 32.0 °F 20.8 °F 20.1 °F 62% 29.67 in 10.0 mi WSW 17.3 mph 23.0 mph N/A   Overcast
9:55 AM 32.9 °F 22.8 °F 21.4 °F 63% 29.67 in 10.0 mi WSW 15.0 mph - N/A   Overcast
10:15 AM 33.4 °F 23.1 °F 22.1 °F 63% 29.68 in 10.0 mi WSW 16.1 mph 23.0 mph N/A   Overcast
10:35 AM 35.6 °F 26.2 °F 23.7 °F 62% 29.67 in 10.0 mi WSW 15.0 mph 20.7 mph N/A   Mostly Cloudy
10:55 AM 35.8 °F 26.9 °F 24.1 °F 62% 29.67 in 10.0 mi WSW 13.8 mph 18.4 mph N/A   Overcast
11:15 AM 36.9 °F 27.8 °F 25.2 °F 63% 29.67 in 10.0 mi West 15.0 mph 21.9 mph N/A   Overcast
11:35 AM 37.0 °F 27.4 °F 26.4 °F 65% 29.67 in 10.0 mi West 17.3 mph 23.0 mph N/A   Overcast
11:55 AM 38.8 °F 27.6 °F 25.5 °F 59% 29.67 in 10.0 mi WNW 26.5 mph 36.8 mph N/A   Mostly Cloudy
12:15 PM 38.3 °F 28.1 °F 24.8 °F 58% 29.67 in 10.0 mi WNW 20.7 mph 32.2 mph N/A   Mostly Cloudy
12:35 PM 40.1 °F 29.7 °F 23.7 °F 52% 29.67 in 10.0 mi NNW 24.2 mph 40.3 mph N/A   Scattered Clouds
12:55 PM 38.3 °F 26.8 °F 26.4 °F 62% 29.67 in 10.0 mi NW 26.5 mph 34.5 mph N/A   Mostly Cloudy
1:15 PM 38.3 °F 26.8 °F 17.2 °F 43% 29.69 in 10.0 mi NW 26.5 mph 43.7 mph N/A   Scattered Clouds
1:35 PM 37.2 °F 24.9 °F 10.8 °F 34% 29.70 in 10.0 mi NW 28.8 mph 40.3 mph N/A   Clear
1:55 PM 36.0 °F 22.8 °F 9.5 °F 33% 29.70 in 10.0 mi NW 31.1 mph 42.6 mph N/A   Clear
2:15 PM 35.8 °F 23.9 °F 13.1 °F 39% 29.71 in 10.0 mi WNW 24.2 mph 32.2 mph N/A   Clear
2:35 PM 36.0 °F 23.5 °F 14.0 °F 41% 29.71 in 10.0 mi NW 27.6 mph 35.7 mph N/A   Clear
2:55 PM 34.7 °F 22.0 °F 16.9 °F 48% 29.72 in 10.0 mi NNW 26.5 mph 31.1 mph N/A   Clear
3:15 PM 34.5 °F 21.3 °F 13.6 °F 42% 29.74 in 10.0 mi NW 28.8 mph 35.7 mph N/A   Clear
3:35 PM 34.2 °F 20.8 °F 9.9 °F 36% 29.75 in 10.0 mi WNW 28.8 mph 43.7 mph N/A   Clear
3:55 PM 32.5 °F 18.1 °F 7.0 °F 34% 29.78 in 10.0 mi WNW 31.1 mph 40.3 mph N/A   Clear
4:15 PM 30.6 °F 16.7 °F 0.5 °F 28% 29.80 in 10.0 mi WNW 25.3 mph 41.4 mph N/A   Clear
4:35 PM 29.1 °F 13.7 °F 3.6 °F 34% 29.82 in 10.0 mi NW 29.9 mph 39.1 mph N/A   Clear
4:55 PM 28.9 °F 15.8 °F 6.3 °F 38% 29.84 in 10.0 mi WNW 20.7 mph 33.4 mph N/A   Clear
5:15 PM 28.2 °F 15.2 °F 7.5 °F 42% 29.86 in 10.0 mi NW 19.6 mph 27.6 mph N/A   Clear
5:35 PM 26.4 °F 12.5 °F 7.0 °F 44% 29.88 in 10.0 mi NW 20.7 mph 31.1 mph N/A   Clear
5:55 PM 25.5 °F 12.4 °F 7.7 °F 47% 29.89 in 10.0 mi NW 17.3 mph 26.5 mph N/A   Clear
6:15 PM 24.6 °F 10.9 °F 7.0 °F 47% 29.90 in 10.0 mi NW 18.4 mph 26.5 mph N/A   Clear
6:35 PM 23.9 °F 9.9 °F 6.8 °F 48% 29.92 in 10.0 mi NW 18.4 mph 25.3 mph N/A   Clear
6:55 PM 23.7 °F 10.5 °F 6.6 °F 48% 29.92 in 10.0 mi NW 16.1 mph 20.7 mph N/A   Clear
7:15 PM 23.0 °F 9.6 °F 6.6 °F 50% 29.93 in 10.0 mi NW 16.1 mph 20.7 mph N/A   Clear
7:35 PM 22.6 °F 10.1 °F 6.8 °F 51% 29.94 in 10.0 mi NW 13.8 mph 20.7 mph N/A   Clear
7:55 PM 21.7 °F 10.8 °F 7.9 °F 55% 29.95 in 10.0 mi NW 10.4 mph - N/A   Clear
8:15 PM 21.6 °F 9.9 °F 7.7 °F 55% 29.96 in 10.0 mi NW 11.5 mph 17.3 mph N/A   Clear
8:35 PM 21.2 °F 8.9 °F 6.4 °F 53% 29.96 in 10.0 mi NW 12.7 mph 18.4 mph N/A   Clear
8:55 PM 20.7 °F 9.5 °F 5.0 °F 51% 29.96 in 10.0 mi NNW 10.4 mph - N/A   Clear
9:15 PM 19.8 °F 9.1 °F 5.4 °F 54% 29.96 in 10.0 mi NNW 9.2 mph - N/A   Clear
9:35 PM 19.0 °F 9.0 °F 6.3 °F 58% 29.96 in 10.0 mi NW 8.1 mph - N/A   Clear
9:55 PM 18.5 °F 8.4 °F 6.3 °F 59% 29.97 in 10.0 mi NW 8.1 mph - N/A   Clear
10:15 PM 18.5 °F 7.5 °F 5.7 °F 58% 29.98 in 10.0 mi NW 9.2 mph - N/A   Clear
10:35 PM 18.3 °F 9.1 °F 5.5 °F 57% 29.98 in 10.0 mi NW 6.9 mph - N/A   Clear
10:55 PM 18.0 °F 6.9 °F 5.5 °F 58% 29.98 in 10.0 mi NW 9.2 mph - N/A   Clear
11:15 PM 17.8 °F 7.5 °F 5.0 °F 57% 29.98 in 10.0 mi WNW 8.1 mph - N/A   Clear
11:35 PM 18.0 °F 7.7 °F 3.9 °F 54% 29.99 in 10.0 mi WNW 8.1 mph - N/A   Clear
11:55 PM 16.9 °F 8.5 °F 4.1 °F 57% 29.97 in 10.0 mi WNW 5.8 mph - N/A   Clear